Location: Bois de la Silve
(44.4667°N, 6.7833°E)
Time: 08:07:39
(UTC+00:00)

Cosmos 1140 Rocket - Pass Details

Date: 14 July 2020
Orbit: 744 x 768 km, 74.1° (Epoch: 14 August)

Event Time Altitude Azimuth Distance (km) Brightness Sun altitude
Exits shadow 00:52:12 33° 143° (SE) 1,272 4.3 -21.8°
Maximum altitude 00:53:46 41° 103° (ESE) 1,096 4.3 -21.7°
Drops below altitude 10° 00:58:39 10° 34° (NE) 2,309 7.1 -21.4°
Sets 01:01:08 0° 28° (NNE) 3,242 8.3 -21.3°
